Regional Weather Roundup
Issued by NWS Cleveland, OH

Home | Current Version | Previous Version | Graphics & Text | Print | Product List | Glossary On
Versions: 1 2 3 4 5 6 7 8 9 10 11 12 13 14 15 16 17 18 19 20 21 22 23 24 25 26 27 28 29 30 31 32 33 34 35 36 37 38 39 40 41 42 43 44 45 46 47 48 49 50
000
ASUS41 KCLE 101910
RWRCLE
OHIO REGIONAL WEATHER ROUNDUP
NATIONAL WEATHER SERVICE WILMINGTON, OH
200 PM EST SAT DEC 10 2016

NOTE: "FAIR" INDICATES FEW OR NO CLOUDS BELOW 12,000 FEET WITH NO
SIGNIFICANT WEATHER AND/OR OBSTRUCTIONS TO VISIBILITY.

OHZ001>008-015>018-024>027-034-035-043-044-102000-
   NORTHWEST OHIO

CITY           SKY/WX    TMP DP  RH WIND       PRES   REMARKS
DEFIANCE       CLOUDY    27  14  58 SW10      30.45F WCI  17
FINDLAY        CLOUDY    26  13  57 W15       30.45F WCI  14
TOLEDO EXPRESS FAIR      28  13  53 W16       30.43F WCI  16
TOLEDO EXEC    FAIR      30  15  53 SW20G25   30.44F WCI  17
LIMA           FLURRIES  25  17  72 W13       30.46S WCI  14
$$

OHZ009>014-019>023-028>033-038-089-102000-
   NORTHEAST OHIO

CITY           SKY/WX    TMP DP  RH WIND       PRES   REMARKS
CLE-HOPKINS    CLOUDY    28  15  58 SW14G22   30.46F WCI  17
CLE-LAKEFRONT  FLURRIES  27  17  66 SW17      30.44S WCI  14
CUY CO. ARPT   PTSUNNY   28  18  64 SW14G22   30.43S WCI  17
LORAIN-ELYRIA  CLOUDY    26  15  63 W15       30.45F WCI  14
ASHTABULA      SNOW      24  21  88 SW12      30.40S VSB 1/2 WCI  13
AKRON-CANTON   CLOUDY    25  14  63 W12       30.42F WCI  14
WOOSTER        PTSUNNY   25  13  60 W13       30.44F WCI  14
MANSFIELD      CLOUDY    23  14  68 W10       30.42F WCI  12
YOUNGSTOWN     PTSUNNY   27  14  58 W14       30.39F WCI  16
$$

OHZ042-051>053-060>062-070>072-077>081-102000-
  SOUTHWEST OHIO

CITY           SKY/WX    TMP DP  RH WIND       PRES   REMARKS
CINC-COVINGTON PTSUNNY   29  16  58 VRB6      30.48F WCI  23
CINC-LUNKEN    PTSUNNY   31  18  58 SW9       30.53F WCI  23
HAMILTON       PTSUNNY   30  18  60 W5        30.52F WCI  25
DAYTON         CLOUDY    26  16  65 SW10      30.47F WCI  16
WRIGHT-PAT AFB CLOUDY    27  17  64 SW12      30.48F WCI  17
DAYTON GENERAL CLOUDY    26  15  63 SW6       30.47F WCI  19
WILMINGTON     CLOUDY    28  16  60 SW7       30.46F WCI  21
$$

OHZ036-037-039>041-045>050-054>059-063>069-073>076-082>088-102000-
  CENTRAL AND SOUTHEAST OHIO

CITY           SKY/WX    TMP DP  RH WIND       PRES   REMARKS
COLUMBUS       CLOUDY    26  16  65 W12       30.48F WCI  16
OSU AIRPORT    CLOUDY    26  16  65 SW12      30.47F WCI  16
BOLTON FIELD   CLOUDY    27  16  63 W8        30.49F WCI  18
RICKENBACK AFB   N/A     26  15  62 W12       30.49F WCI  16
NEWARK         CLOUDY    26  17  68 SW7       30.47F WCI  18
MARION         CLOUDY    25  13  60 W10G21    30.46F WCI  15
LANCASTER      CLOUDY    27  17  66 W8        30.49F WCI  19
ZANESVILLE     CLOUDY    27  14  58 W8        30.47F WCI  19
NEW PHILLY     CLOUDY    26  16  65 SW8       30.47F WCI  18
$$



USA.gov is the U.S. government's official web portal to all federal, state and local government web resources and services.